Location: Budapest
(47.4979°N, 19.0402°E)
Time: 00:00:44
(UTC+01:00)

ISS - Visible Passes

Search period start: 29 November 2021 00:00
Search period end: 09 December 2021 00:00
Orbit: 417 x 423 km, 51.6° (Epoch: 28 November)

Date Brightness Start Highest point End Pass type
(mag) Time Alt. Az. Time Alt. Az. Time Alt. Az.
29 Nov -3.0 17:06:50 10° WNW 17:10:04 39° N 17:11:56 21° NE visible
29 Nov -1.0 18:43:55 10° WNW 18:44:54 18° WNW 18:44:54 18° WNW visible
30 Nov -3.1 17:56:42 10° WNW 17:59:38 44° NNW 17:59:38 44° NNW visible
01 Dec -3.1 17:09:28 10° WNW 17:12:43 41° N 17:14:23 23° ENE visible
01 Dec -1.0 18:46:21 10° WNW 18:47:22 18° WNW 18:47:22 18° WNW visible
02 Dec -3.0 16:22:10 10° WNW 16:25:24 39° N 16:28:37 10° ENE visible
02 Dec -3.6 17:59:08 10° WNW 18:02:11 65° NNW 18:02:11 65° NNW visible
03 Dec -3.6 17:11:54 10° WNW 17:15:16 57° NNE 17:17:04 24° E visible
03 Dec -0.9 18:48:52 10° WNW 18:50:04 19° W 18:50:04 19° W visible
04 Dec -3.3 16:24:38 10° WNW 16:27:57 47° NNE 16:31:15 10° E visible
04 Dec -3.2 18:01:31 10° WNW 18:04:51 53° SSW 18:05:04 52° SSW visible
05 Dec -3.7 17:14:13 10° WNW 17:17:38 79° SSW 17:20:15 16° ESE visible
05 Dec -0.7 18:51:56 10° W 18:53:16 14° WSW 18:53:16 14° WSW visible
06 Dec -3.8 16:26:57 10° WNW 16:30:21 76° NNE 16:33:44 10° ESE visible
06 Dec -1.5 18:04:10 10° W 18:06:54 23° SW 18:08:41 16° S visible
07 Dec -2.1 17:16:38 10° WNW 17:19:45 35° SW 17:22:52 10° SSE visible
08 Dec -2.8 16:29:13 10° WNW 16:32:32 52° SSW 16:35:51 10° SE visible
